| time (UTC) | temp F | wind direction | speed MPH | gust MPH | rain 1hr in | rain 24hr in | rain mn in | humidity % | barometer mb |
| 20260507035356 | 63 | 285 | 7.0 | 10.0 | 0.00 | 0.00 | 0.00 | 69 | 1018.3 |
| 20260507034846 | 63 | 290 | 8.0 | 10.0 | 0.00 | 0.00 | 0.00 | 69 | 1018.3 |
| 20260507034342 | 63 | 284 | 9.0 | 10.0 | 0.00 | 0.00 | 0.00 | 68 | 1018.2 |
| 20260507033855 | 64 | 288 | 8.0 | 10.0 | 0.00 | 0.00 | 0.00 | 67 | 1018.1 |
| 20260507033401 | 64 | 281 | 8.0 | 10.0 | 0.00 | 0.00 | 0.00 | 67 | 1018.0 |
| 20260507032850 | 64 | 286 | 7.0 | 9.0 | 0.00 | 0.00 | 0.00 | 66 | 1018.1 |
| 20260507032355 | 64 | 288 | 7.0 | 9.0 | 0.00 | 0.00 | 0.00 | 66 | 1018.0 |
| 20260507031904 | 64 | 295 | 8.0 | 9.0 | 0.00 | 0.00 | 0.00 | 66 | 1018.0 |
| 20260507031356 | 65 | 293 | 8.0 | 10.0 | 0.00 | 0.00 | 0.00 | 65 | 1017.9 |
| 20260507030843 | 65 | 292 | 8.0 | 11.0 | 0.00 | 0.00 | 0.00 | 65 | 1017.9 |
| 20260507030340 | 65 | 296 | 9.0 | 11.0 | 0.00 | 0.00 | 0.00 | 64 | 1018.0 |
| 20260507025915 | 65 | 283 | 9.0 | 12.0 | 0.00 | 0.00 | 0.00 | 64 | 1017.7 |
| 20260507025423 | 65 | 298 | 9.0 | 12.0 | 0.00 | 0.00 | 0.00 | 63 | 1017.7 |
| 20260507024846 | 66 | 292 | 10.0 | 13.0 | 0.00 | 0.00 | 0.00 | 63 | 1017.6 |
| 20260507024347 | 66 | 285 | 11.0 | 14.0 | 0.00 | 0.00 | 0.00 | 62 | 1017.5 |
| 20260507023901 | 66 | 292 | 11.0 | 14.0 | 0.00 | 0.00 | 0.00 | 61 | 1017.5 |
| 20260507023404 | 67 | 315 | 9.0 | 11.0 | 0.00 | 0.00 | 0.00 | 60 | 1017.4 |
| 20260507022902 | 67 | 295 | 9.0 | 13.0 | 0.00 | 0.00 | 0.00 | 60 | 1017.4 |
| 20260507022354 | 67 | 290 | 10.0 | 13.0 | 0.00 | 0.00 | 0.00 | 60 | 1017.4 |
| 20260507021907 | 67 | 296 | 11.0 | 13.0 | 0.00 | 0.00 | 0.00 | 59 | 1017.3 |
| 20260507021358 | 67 | 286 | 11.0 | 15.0 | 0.00 | 0.00 | 0.00 | 59 | 1017.2 |
| 20260507020855 | 68 | 292 | 12.0 | 15.0 | 0.00 | 0.00 | 0.00 | 59 | 1017.2 |
| 20260507020357 | 68 | 293 | 12.0 | 14.0 | 0.00 | 0.00 | 0.00 | 59 | 1017.2 |
| 20260507015906 | 68 | 304 | 11.0 | 15.0 | 0.00 | 0.00 | 0.00 | 58 | 1017.1 |
| 20260507015403 | 68 | 283 | 12.0 | 15.0 | 0.00 | 0.00 | 0.00 | 58 | 1017.1 |
| 20260507014848 | 68 | 281 | 13.0 | 14.0 | 0.00 | 0.00 | 0.00 | 57 | 1017.1 |
| 20260507014413 | 69 | 283 | 11.0 | 15.0 | 0.00 | 0.00 | 0.00 | 57 | 1017.1 |
| 20260507013839 | 69 | 288 | 12.0 | 15.0 | 0.00 | 0.00 | 0.00 | 56 | 1017.1 |
| 20260507013344 | 69 | 281 | 11.0 | 14.0 | 0.00 | 0.00 | 0.00 | 56 | 1017.0 |
| 20260507012848 | 70 | 316 | 10.0 | 14.0 | 0.00 | 0.00 | 0.00 | 56 | 1016.9 |
| 20260507012349 | 70 | 275 | 12.0 | 15.0 | 0.00 | 0.00 | 0.00 | 55 | 1017.0 |
| 20260507011851 | 70 | 292 | 12.0 | 16.0 | 0.00 | 0.00 | 0.00 | 55 | 1016.9 |
| 20260507011402 | 70 | 273 | 11.0 | 16.0 | 0.00 | 0.00 | 0.00 | 53 | 1016.9 |
| 20260507010914 | 70 | 280 | 10.0 | 15.0 | 0.00 | 0.00 | 0.00 | 53 | 1016.9 |
| 20260507010400 | 71 | 289 | 12.0 | 15.0 | 0.00 | 0.00 | 0.00 | 53 | 1016.8 |
| 20260507005857 | 71 | 273 | 12.0 | 17.0 | 0.00 | 0.00 | 0.00 | 53 | 1016.8 |
| 20260507005349 | 71 | 288 | 13.0 | 17.0 | 0.00 | 0.00 | 0.00 | 52 | 1016.7 |
| 20260507004851 | 71 | 263 | 13.0 | 17.0 | 0.00 | 0.00 | 0.00 | 52 | 1016.7 |
| 20260507004344 | 72 | 283 | 11.0 | 17.0 | 0.00 | 0.00 | 0.00 | 52 | 1016.7 |
| 20260507003850 | 71 | 284 | 7.0 | 17.0 | 0.00 | 0.00 | 0.00 | 52 | 1016.7 |
| 20260507003356 | 71 | 341 | 13.0 | 17.0 | 0.00 | 0.00 | 0.00 | 52 | 1016.5 |
| 20260507002852 | 72 | 263 | 13.0 | 18.0 | 0.00 | 0.00 | 0.00 | 52 | 1016.6 |
| 20260507002352 | 72 | 278 | 15.0 | 19.0 | 0.00 | 0.00 | 0.00 | 51 | 1016.5 |
| 20260507001855 | 72 | 280 | 13.0 | 19.0 | 0.00 | 0.00 | 0.00 | 51 | 1016.4 |
| 20260507001342 | 72 | 276 | 15.0 | 19.0 | 0.00 | 0.00 | 0.00 | 51 | 1016.4 |
| 20260507000844 | 73 | 284 | 11.0 | 20.0 | 0.00 | 0.00 | 0.00 | 50 | 1016.4 |
| 20260507000340 | 72 | 263 | 15.0 | 20.0 | 0.00 | 0.00 | 0.00 | 50 | 1016.3 |
| 20260506235855 | 73 | 287 | 12.0 | 17.0 | 0.00 | 0.00 | 0.00 | 50 | 1016.3 |
| 20260506235409 | 73 | 273 | 14.0 | 17.0 | 0.00 | 0.00 | 0.00 | 49 | 1016.4 |
| 20260506234844 | 73 | 295 | 9.0 | 18.0 | 0.00 | 0.00 | 0.00 | 49 | 1016.4 |
| 20260506234404 | 73 | 309 | 11.0 | 18.0 | 0.00 | 0.00 | 0.00 | 49 | 1016.5 |
| 20260506233909 | 73 | 300 | 8.0 | 18.0 | 0.00 | 0.00 | 0.00 | 49 | 1016.4 |
| 20260506233402 | 73 | 302 | 10.0 | 16.0 | 0.00 | 0.00 | 0.00 | 49 | 1016.3 |
| 20260506232910 | 73 | 304 | 10.0 | 19.0 | 0.00 | 0.00 | 0.00 | 49 | 1016.4 |
| 20260506232345 | 73 | 281 | 13.0 | 19.0 | 0.00 | 0.00 | 0.00 | 49 | 1016.3 |
| 20260506231845 | 73 | 326 | 14.0 | 18.0 | 0.00 | 0.00 | 0.00 | 48 | 1016.4 |
| 20260506231350 | 73 | 290 | 12.0 | 19.0 | 0.00 | 0.00 | 0.00 | 49 | 1016.3 |
| 20260506230842 | 73 | 312 | 10.0 | 19.0 | 0.00 | 0.00 | 0.00 | 47 | 1016.5 |
| 20260506230419 | 73 | 270 | 12.0 | 19.0 | 0.00 | 0.00 | 0.00 | 47 | 1016.4 |
| 20260506225847 | 74 | 281 | 13.0 | 19.0 | 0.00 | 0.00 | 0.00 | 46 | 1016.5 |
| 20260506225356 | 74 | 272 | 8.0 | 13.0 | 0.00 | 0.00 | 0.00 | 47 | 1016.5 |
| 20260506224849 | 73 | 321 | 8.0 | 16.0 | 0.00 | 0.00 | 0.00 | 47 | 1016.5 |
| 20260506224356 | 73 | 304 | 9.0 | 16.0 | 0.00 | 0.00 | 0.00 | 47 | 1016.6 |
| 20260506223840 | 73 | 300 | 10.0 | 14.0 | 0.00 | 0.00 | 0.00 | 47 | 1016.8 |
| 20260506223347 | 73 | 360 | 11.0 | 15.0 | 0.00 | 0.00 | 0.00 | 47 | 1016.8 |
| 20260506222905 | 74 | 302 | 10.0 | 15.0 | 0.00 | 0.00 | 0.00 | 47 | 1016.8 |
| 20260506222354 | 73 | 290 | 7.0 | 12.0 | 0.00 | 0.00 | 0.00 | 47 | 1016.8 |
| 20260506221924 | 73 | 326 | 5.0 | 14.0 | 0.00 | 0.00 | 0.00 | 47 | 1016.8 |
| 20260506221415 | 73 | 298 | 8.0 | 14.0 | 0.00 | 0.00 | 0.00 | 46 | 1016.9 |
| 20260506220857 | 73 | 324 | 6.0 | 12.0 | 0.00 | 0.00 | 0.00 | 47 | 1017.1 |
| 20260506220400 | 73 | 338 | 8.0 | 12.0 | 0.00 | 0.00 | 0.00 | 46 | 1017.1 |
| 20260506215847 | 72 | 296 | 8.0 | 12.0 | 0.00 | 0.00 | 0.00 | 46 | 1017.1 |
| 20260506215419 | 72 | 13 | 6.0 | 12.0 | 0.00 | 0.00 | 0.00 | 46 | 1017.1 |
| 20260506214900 | 71 | 316 | 7.0 | 15.0 | 0.00 | 0.00 | 0.00 | 48 | 1017.3 |
| 20260506214344 | 71 | 346 | 5.0 | 15.0 | 0.00 | 0.00 | 0.00 | 46 | 1017.4 |
| 20260506213847 | 71 | 300 | 8.0 | 14.0 | 0.00 | 0.00 | 0.00 | 46 | 1017.5 |
| 20260506213353 | 72 | 264 | 10.0 | 14.0 | 0.00 | 0.00 | 0.00 | 46 | 1017.6 |
| 20260506212852 | 72 | 305 | 9.0 | 14.0 | 0.00 | 0.00 | 0.00 | 46 | 1017.7 |
| 20260506212348 | 72 | 344 | 6.0 | 12.0 | 0.00 | 0.00 | 0.00 | 46 | 1017.7 |
| 20260506211844 | 71 | 292 | 7.0 | 12.0 | 0.00 | 0.00 | 0.00 | 46 | 1017.8 |
| 20260506211407 | 71 | 294 | 6.0 | 12.0 | 0.00 | 0.00 | 0.00 | 46 | 1017.8 |
| 20260506210846 | 72 | 287 | 7.0 | 13.0 | 0.00 | 0.00 | 0.00 | 45 | 1017.8 |
| 20260506210351 | 72 | 285 | 6.0 | 13.0 | 0.00 | 0.00 | 0.00 | 46 | 1017.9 |
| 20260506205846 | 72 | 255 | 8.0 | 12.0 | 0.00 | 0.00 | 0.00 | 46 | 1017.8 |
| 20260506205341 | 71 | 278 | 6.0 | 11.0 | 0.00 | 0.00 | 0.00 | 47 | 1017.9 |
| 20260506204840 | 71 | 360 | 6.0 | 13.0 | 0.00 | 0.00 | 0.00 | 47 | 1017.8 |
| 20260506204357 | 70 | 298 | 7.0 | 13.0 | 0.00 | 0.00 | 0.00 | 46 | 1018.0 |
| 20260506203839 | 70 | 242 | 7.0 | 13.0 | 0.00 | 0.00 | 0.00 | 47 | 1018.0 |
| 20260506203350 | 71 | 284 | 5.0 | 12.0 | 0.00 | 0.00 | 0.00 | 48 | 1018.0 |
| 20260506202901 | 69 | 298 | 6.0 | 12.0 | 0.00 | 0.00 | 0.00 | 48 | 1018.0 |
| 20260506202343 | 69 | 306 | 3.0 | 13.0 | 0.00 | 0.00 | 0.00 | 49 | 1018.0 |
| 20260506201846 | 68 | 280 | 8.0 | 13.0 | 0.00 | 0.00 | 0.00 | 50 | 1018.1 |
| 20260506201357 | 68 | 360 | 6.0 | 12.0 | 0.00 | 0.00 | 0.00 | 49 | 1018.2 |
| 20260506200854 | 69 | 271 | 4.0 | 13.0 | 0.00 | 0.00 | 0.00 | 50 | 1018.2 |
| 20260506200352 | 68 | 300 | 6.0 | 13.0 | 0.00 | 0.00 | 0.00 | 51 | 1018.2 |
| 20260506195854 | 68 | 283 | 5.0 | 13.0 | 0.00 | 0.00 | 0.00 | 52 | 1018.4 |
| 20260506195419 | 68 | 287 | 8.0 | 12.0 | 0.00 | 0.00 | 0.00 | 51 | 1018.4 |
| 20260506194857 | 68 | 292 | 4.0 | 12.0 | 0.00 | 0.00 | 0.00 | 52 | 1018.4 |
| 20260506194400 | 68 | 288 | 6.0 | 11.0 | 0.00 | 0.00 | 0.00 | 51 | 1018.5 |
| 20260506193902 | 67 | 324 | 6.0 | 13.0 | 0.00 | 0.00 | 0.00 | 52 | 1018.6 |
| 20260506193347 | 67 | 278 | 6.0 | 13.0 | 0.00 | 0.00 | 0.00 | 52 | 1018.6 |
| 20260506192916 | 67 | 268 | 5.0 | 12.0 | 0.00 | 0.00 | 0.00 | 52 | 1018.7 |
| 20260506192344 | 67 | 257 | 8.0 | 12.0 | 0.00 | 0.00 | 0.00 | 52 | 1018.8 |
| 20260506191854 | 67 | 279 | 8.0 | 12.0 | 0.00 | 0.00 | 0.00 | 53 | 1019.0 |
| 20260506191356 | 67 | 277 | 6.0 | 10.0 | 0.00 | 0.00 | 0.00 | 53 | 1019.1 |
| 20260506190909 | 66 | 243 | 8.0 | 11.0 | 0.00 | 0.00 | 0.00 | 53 | 1019.1 |
| 20260506190351 | 67 | 278 | 4.0 | 9.0 | 0.00 | 0.00 | 0.00 | 54 | 1019.2 |
| 20260506185902 | 66 | 325 | 4.0 | 12.0 | 0.00 | 0.00 | 0.00 | 54 | 1019.2 |
| 20260506185407 | 66 | 333 | 6.0 | 12.0 | 0.00 | 0.00 | 0.00 | 55 | 1019.2 |
| 20260506184916 | 66 | 265 | 7.0 | 10.0 | 0.00 | 0.00 | 0.00 | 54 | 1019.3 |
| 20260506184343 | 66 | 284 | 5.0 | 8.0 | 0.00 | 0.00 | 0.00 | 55 | 1019.3 |
| 20260506183900 | 65 | 348 | 3.0 | 8.0 | 0.00 | 0.00 | 0.00 | 55 | 1019.3 |
| 20260506183344 | 65 | 342 | 5.0 | 9.0 | 0.00 | 0.00 | 0.00 | 55 | 1019.4 |
| 20260506182851 | 65 | 344 | 4.0 | 9.0 | 0.00 | 0.00 | 0.00 | 56 | 1019.4 |
| 20260506181841 | 65 | 360 | 3.0 | 6.0 | 0.00 | 0.00 | 0.00 | 57 | 1019.4 |
| 20260506181347 | 64 | 29 | 3.0 | 10.0 | 0.00 | 0.00 | 0.00 | 57 | 1019.5 |
| 20260506180857 | 64 | 313 | 5.0 | 10.0 | 0.00 | 0.00 | 0.00 | 57 | 1019.5 |
| 20260506180359 | 64 | 311 | 4.0 | 10.0 | 0.00 | 0.00 | 0.00 | 58 | 1019.6 |
| 20260506175849 | 64 | 234 | 6.0 | 10.0 | 0.00 | 0.00 | 0.00 | 59 | 1019.5 |
| 20260506175404 | 63 | 302 | 3.0 | 10.0 | 0.00 | 0.00 | 0.00 | 60 | 1019.5 |
| 20260506174844 | 63 | 315 | 5.0 | 11.0 | 0.00 | 0.00 | 0.00 | 60 | 1019.5 |
| 20260506174352 | 63 | 273 | 8.0 | 11.0 | 0.00 | 0.00 | 0.00 | 60 | 1019.4 |
| 20260506173853 | 63 | 292 | 7.0 | 10.0 | 0.00 | 0.00 | 0.00 | 60 | 1019.4 |
| 20260506173356 | 62 | 247 | 3.0 | 8.0 | 0.00 | 0.00 | 0.00 | 61 | 1019.4 |
| 20260506172900 | 62 | 283 | 4.0 | 9.0 | 0.00 | 0.00 | 0.00 | 60 | 1019.5 |
| 20260506172407 | 62 | 308 | 6.0 | 9.0 | 0.00 | 0.00 | 0.00 | 61 | 1019.4 |
| 20260506171858 | 62 | 275 | 6.0 | 9.0 | 0.00 | 0.00 | 0.00 | 60 | 1019.4 |
| 20260506171403 | 63 | 267 | 5.0 | 8.0 | 0.00 | 0.00 | 0.00 | 61 | 1019.5 |
| 20260506170855 | 62 | 321 | 1.0 | 3.0 | 0.00 | 0.00 | 0.00 | 63 | 1019.5 |
| 20260506170359 | 62 | 310 | 1.0 | 4.0 | 0.00 | 0.00 | 0.00 | 63 | 1019.5 |
| 20260506165902 | 61 | 284 | 3.0 | 6.0 | 0.00 | 0.00 | 0.00 | 64 | 1019.5 |
| 20260506165344 | 61 | 38 | 3.0 | 9.0 | 0.00 | 0.00 | 0.00 | 65 | 1019.4 |
| 20260506164900 | 61 | 285 | 3.0 | 7.0 | 0.00 | 0.00 | 0.00 | 66 | 1019.5 |
| 20260506164358 | 60 | 55 | 3.0 | 8.0 | 0.00 | 0.00 | 0.00 | 66 | 1019.6 |
| 20260506163844 | 60 | 349 | 5.0 | 8.0 | 0.00 | 0.00 | 0.00 | 66 | 1019.6 |
| 20260506163346 | 60 | 278 | 1.0 | 5.0 | 0.00 | 0.00 | 0.00 | 67 | 1019.5 |
| 20260506162859 | 59 | 5 | 3.0 | 6.0 | 0.00 | 0.00 | 0.00 | 67 | 1019.5 |
| 20260506162346 | 59 | 5 | 3.0 | 6.0 | 0.00 | 0.00 | 0.00 | 66 | 1019.5 |
| 20260506161845 | 60 | 308 | 4.0 | 6.0 | 0.00 | 0.00 | 0.00 | 67 | 1019.5 |
| 20260506161354 | 60 | 38 | 2.0 | 4.0 | 0.00 | 0.00 | 0.00 | 68 | 1019.4 |
| 20260506160856 | 60 | 274 | 2.0 | 5.0 | 0.00 | 0.00 | 0.00 | 69 | 1019.4 |
| 20260506160343 | 59 | 135 | 4.0 | 5.0 | 0.00 | 0.00 | 0.00 | 70 | 1019.4 |
| 20260506155848 | 58 | 70 | 2.0 | 3.0 | 0.00 | 0.00 | 0.00 | 70 | 1019.5 |
| 20260506155349 | 58 | 30 | 2.0 | 3.0 | 0.00 | 0.00 | 0.00 | 71 | 1019.4 |
| 20260506154853 | 58 | 342 | 2.0 | 4.0 | 0.00 | 0.00 | 0.00 | 72 | 1019.4 |
| 20260506154357 | 57 | 24 | 0.0 | 5.0 | 0.00 | 0.00 | 0.00 | 73 | 1019.4 |
| 20260506153844 | 57 | 360 | 2.0 | 5.0 | 0.00 | 0.00 | 0.00 | 74 | 1019.4 |
| 20260506153342 | 57 | 53 | 2.0 | 6.0 | 0.00 | 0.00 | 0.00 | 76 | 1019.4 |
| 20260506152848 | 57 | 144 | 2.0 | 6.0 | 0.00 | 0.00 | 0.00 | 78 | 1019.3 |